{"data":{"norad_id":56776,"epoch":"2026-05-25T05:27:36.698112Z","epoch_age_seconds":69582,"freshness":"FRESH","line1":"1 56776U 23078K   26145.22750808  .00000494  00000+0  49195-4 0  9999","line2":"2 56776  69.9986 131.6601 0003612 267.5317  92.5429 14.98328844164633","mean_motion":14.98328844,"eccentricity":0.0003612,"inclination_deg":69.9986,"raan_deg":131.6601,"arg_perigee_deg":267.5317,"mean_anomaly_deg":92.5429,"bstar":4.9195e-5,"rev_number":16463,"period_min":96.107073274764,"perigee_km":569.54905481792,"apogee_km":574.5698767448,"semimajor_km":6950.1964657814,"source":"CELESTRAK","updated_at":"2026-05-25T13:38:18.125007Z"}}